Glendale Luke AFB, AZ

10:19 PM MST on December 15, 2019 (GMT -0700)
Luke Air Force Base

Weather History for KLUF - August, 2019

Change the Weather History Date:

Wednesday, August 21, 2019

  Actual Average Record
Temperature  
Mean Temperature 96 °F -  
Max Temperature 112 °F 105 °F 117 °F (1969)
Min Temperature 80 °F 73 °F 56 °F (1917)
Cooling Degree Days 31    
Growing Degree Days 46 (Base 50)    
Moisture  
Dew Point 32 °F    
Average Humidity 11    
Maximum Humidity 22    
Minimum Humidity 4    
Precipitation  
Precipitation 0.00 in - - ()
Sea Level Pressure  
Sea Level Pressure 29.67 in    
Wind  
Wind Speed 6 mph (WNW)    
Max Wind Speed 13 mph    
Max Gust Speed 23 mph    
Visibility 10 miles    
Events      
Averages and records for this station are not official NWS values.
T = Trace of Precipitation, MM = Missing Value Source: NWS Daily Summary

Daily Weather History Graph

Daily Weather History Graph

Search for Another Location

Airport or City:

Astronomy

Aug. 21, 2019 Rise Set
Actual Time 5:55 AM MST 7:08 PM MST
Civil Twilight 5:29 AM MST 7:34 PM MST
Nautical Twilight 4:59 AM MST 8:05 PM MST
Astronomical Twilight 4:27 AM MST 8:37 PM MST
Moon 10:45 PM MST (8/21) 11:19 AM MST (8/21)
Length of Visible Light 14h 04m
Length of Day
13h 12m
Waning Gibbous, 68% of the Moon is Illuminated
Aug 21
Waning Gibbous
Aug 23
Last Quarter
Aug 30
New
Sep 5
First Quarter
Sep 13
Full

Hourly Weather History & Observations

Time (MST) Temp. Dew Point Humidity Pressure Visibility Wind Dir Wind Speed Gust Speed Precip Events Conditions
12:58 AM 88.5 °F 33.3 °F 14% 29.69 in 10.0 mi North 8.1 mph - N/A   Clear
1:58 AM 85.6 °F 35.8 °F 17% 29.69 in 10.0 mi NNE 6.9 mph - N/A   Clear
2:58 AM 84.9 °F 38.1 °F 19% 29.70 in 10.0 mi North 6.9 mph - N/A   Clear
3:58 AM 82.2 °F 38.3 °F 21% 29.69 in 10.0 mi Calm Calm - N/A   Clear
4:58 AM 81.5 °F 39.0 °F 22% 29.71 in 10.0 mi NNE 4.6 mph - N/A   Clear
5:58 AM 80.6 °F 37.0 °F 21% 29.73 in 10.0 mi NNW 9.2 mph - N/A   Clear
6:58 AM 83.5 °F 36.9 °F 19% 29.74 in 10.0 mi North 5.8 mph - N/A   Clear
7:58 AM 91.0 °F 41.5 °F 18% 29.75 in 10.0 mi NE 4.6 mph - N/A   Clear
8:58 AM 94.8 °F 41.5 °F 16% 29.75 in 10.0 mi East 4.6 mph - N/A   Clear
9:58 AM 99.7 °F 41.9 °F 14% 29.76 in 10.0 mi ESE 5.8 mph - N/A   Clear
10:58 AM 103.1 °F 38.3 °F 11% 29.75 in 10.0 mi ENE 3.5 mph - N/A   Clear
11:51 AM 107.6 °F 35.6 °F 8% 29.73 in 10.0 mi East 4.6 mph - N/A   Light Drizzle
11:52 AM 107.6 °F 35.6 °F 8% 29.73 in 10.0 mi East 3.5 mph - N/A   Clear
11:58 AM 106.9 °F 36.1 °F 9% 29.72 in 10.0 mi Calm Calm - 0.00 in   Clear
12:58 PM 108.9 °F 27.5 °F 6% 29.70 in 10.0 mi Calm Calm - N/A   Partly Cloudy
1:55 PM 111.2 °F 28.4 °F 6% 29.67 in 10.0 mi WSW 12.7 mph 18.4 mph N/A   Clear
1:58 PM 110.8 °F 28.9 °F 6% 29.67 in 10.0 mi West 10.4 mph 18.4 mph N/A   Clear
2:58 PM 111.9 °F 25.2 °F 5% 29.64 in 10.0 mi WSW 10.4 mph 23.0 mph N/A   Clear
3:58 PM 112.3 °F 25.5 °F 5% 29.61 in 10.0 mi WSW 12.7 mph - N/A   Clear
4:58 PM 112.5 °F 20.3 °F 4% 29.59 in 10.0 mi WSW 12.7 mph 19.6 mph N/A   Clear
5:58 PM 111.6 °F 19.6 °F 4% 29.58 in 10.0 mi West 9.2 mph - N/A   Clear
6:58 PM 108.0 °F 22.5 °F 5% 29.58 in 10.0 mi WSW 5.8 mph - N/A   Clear
7:58 PM 101.8 °F 26.2 °F 7% 29.60 in 10.0 mi WSW 5.8 mph - N/A   Clear
8:55 PM 96.8 °F 32.0 °F 10% 29.61 in 10.0 mi WSW 6.9 mph - N/A   Clear
9:58 PM 94.6 °F 29.7 °F 10% 29.61 in 10.0 mi SW 4.6 mph - N/A   Clear
10:58 PM 94.6 °F 27.0 °F 9% 29.61 in 10.0 mi West 6.9 mph - N/A   Clear
11:58 PM 92.3 °F 32.4 °F 12% 29.61 in 10.0 mi ESE 8.1 mph - N/A   Clear